This is the latest recevied weather packets stored in our database for station/object WE1C. If no packets are shown the sender has not sent any weather packets the latest 10 day(s).
| Time | Temp. | Humidity | Pressure | Rain* | Wind** | Luminosity | Snow |
|---|---|---|---|---|---|---|---|
| 1778063015 | 14.44° C | 83% | 1039 hPa | 0 mm | - | 51 W/m² | - |
| 1778062712 | 13.89° C | 83% | 1038.8 hPa | 0 mm | - | 40 W/m² | - |
| 1778062407 | 13.89° C | 83% | 1038.9 hPa | 0 mm | - | 25 W/m² | - |
| 1778062106 | 13.89° C | 83% | 1039.2 hPa | 0 mm | - | 15 W/m² | - |
| 1778061804 | 13.89° C | 83% | 1039 hPa | 0 mm | - | 11 W/m² | - |
| 1778061502 | 13.89° C | 83% | 1039.1 hPa | 0 mm | - | 10 W/m² | - |
| 1778061198 | 13.89° C | 83% | 1039.1 hPa | 0 mm | - | 8 W/m² | - |
| 1778060895 | 13.89° C | 83% | 1038.8 hPa | 0 mm | - | 7 W/m² | - |
| 1778060594 | 14.44° C | 82% | 1038.5 hPa | 0 mm | - | 3 W/m² | - |
| 1778060292 | 14.44° C | 82% | 1038.8 hPa | 0 mm | - | 1 W/m² | - |
| 1778059988 | 14.44° C | 82% | 1039.2 hPa | 0 mm | - | 0 W/m² | - |
| 1778059687 | 13.89° C | 82% | 1038.7 hPa | 0 mm | - | 0 W/m² | - |
| 1778059384 | 13.89° C | 82% | 1038.9 hPa | 0 mm | - | 0 W/m² | - |
| 1778059081 | 14.44° C | 82% | 1038.5 hPa | 0 mm | - | 0 W/m² | - |
| 1778058779 | 14.44° C | 81% | 1038.7 hPa | 0 mm | - | 0 W/m² | - |
| 1778058476 | 14.44° C | 81% | 1038.9 hPa | 0 mm | - | 0 W/m² | - |
| 1778058173 | 14.44° C | 81% | 1038.9 hPa | 0 mm | - | 0 W/m² | - |
| 1778057870 | 14.44° C | 81% | 1039 hPa | 0 mm | - | 0 W/m² | - |
| 1778057566 | 14.44° C | 81% | 1039 hPa | 0 mm | - | 0 W/m² | - |
| 1778057263 | 14.44° C | 80% | 1039 hPa | 0 mm | - | 0 W/m² | - |
| 1778056959 | 14.44° C | 80% | 1038.9 hPa | 0 mm | - | 0 W/m² | - |
| 1778056656 | 14.44° C | 80% | 1039.1 hPa | 0 mm | - | 0 W/m² | - |
| 1778056354 | 14.44° C | 80% | 1039.1 hPa | 0 mm | - | 0 W/m² | - |
| 1778056051 | 14.44° C | 80% | 1039 hPa | 0 mm | - | 0 W/m² | - |
| 1778055746 | 14.44° C | 80% | 1039.1 hPa | 0 mm | - | 0 W/m² | - |
* Rain latest hour (hover to see other rain measurements)
** Current wind speed in m/s (hover to see current wind gust speed)